ATLAS CENTAUR R/B - Orbit

View from above orbital plane
View from above orbital plane
View from above satellite
View from above satellite

Ground track
Ground track

The orbit data is extracted from the following two-line orbital elements,

1 28385U 04034B   13144.92883440 0.00082000  00000-0  17193-2 0    04
2 28385  57.3360 186.1790 4328766 132.7033 273.0571  6.92377896    01
Epoch (UTC): 24 May 2013 22:17:31
Eccentricity: 0.4328766
inclination: 57.3360°
perigee height: 216 km
apogee height: 10283 km
right ascension of ascending node: 186.1790°
argument of perigee: 132.7033°
revolutions per day: 6.92377896
mean anomaly at epoch: 273.0571°
orbit number at epoch: 0

The dashed part of the orbit path shows where the satellite is in the earth's shadow,  

Developed and maintained by Chris Peat, Heavens-Above GmbH. Please read the updated FAQ before sending e-mail. Imprint. DLR